Regional Weather Roundup
Issued by NWS

Home | Current Version | Previous Version | Graphics & Text | Print | Product List | Glossary On
Versions: 1 2 3 4 5 6 7 8 9 10 11 12 13 14 15 16 17 18 19 20 21 22 23 24 25 26 27 28 29 30 31 32 33 34 35 36 37 38 39 40 41 42 43 44 45 46 47 48 49 50
000
ASUS43 KDMX 230301
RWRIA

WEATHER ROUNDUP FOR IOWA
NATIONAL WEATHER SERVICE DES MOINES IA
900 PM CST WED NOV 22 2017

NOTE: "FAIR" INDICATES FEW OR NO CLOUDS BELOW 12,000 FEET WITH NO
SIGNIFICANT WEATHER AND/OR OBSTRUCTIONS TO VISIBILITY.

* - THESE STATIONS ARE NOT NWS STATIONS...THUS NOT UNDER NWS
QUALITY CONTROL.  THEY ALSO DO NOT REPORT WEATHER SUCH
AS PRECIPITATION OR FOG.

IAZ001>003-012>014-020>022-031>034-043>046-230400-
   NORTHWEST IOWA

CITY           SKY/WX    TMP DP  RH WIND       PRES   REMARKS
CARROLL *      MOCLDY    34  18  51 SW15      30.03S WCI  24
CHEROKEE *     CLEAR     32  19  57 SW7       29.98F WCI  26
DENISON *      CLEAR     34  18  51 SW9G18    30.05S WCI  26
LE MARS *      CLEAR     32  19  59 S8        29.98F WCI  25
ORANGE CITY *  CLEAR     34  21  60 SW10      29.96F WCI  26
SHELDON *      CLEAR     34  18  51 SW13G18   29.94F WCI  25
SIOUX CITY     CLEAR     36  20  52 S7        30.00F WCI  30
SPENCER        CLEAR     29  17  61 S8        29.97F WCI  21
STORM LAKE *   CLEAR     32  18  55 SW15      29.98F WCI  22
$$

IAZ055>058-069>071-079>083-090>094-230400-
   SOUTHWEST IOWA

CITY           SKY/WX    TMP DP  RH WIND       PRES   REMARKS
ATLANTIC *     PTCLDY    34  19  55 S13       30.07F WCI  25
AUDUBON *      CLOUDY    34  18  51 S12       30.05F WCI  25
CLARINDA *     PTCLDY    32  19  59 S9        30.13F WCI  24
COUNCIL BLFS * PTCLDY    39  19  45 SW16G22   30.04F WCI  30
CRESTON *      CLEAR     32  18  55 S13       30.10F WCI  22
HARLAN  *      CLEAR     32  19  59 S12       30.08S WCI  23
LAMONI         CLEAR     31  17  56 SW10      30.13F WCI  22
RED OAK *      PTCLDY    34  19  55 S13       30.08F WCI  25
SHENANDOAH *   PTCLDY    36  19  51 S12       30.10F WCI  27
$$

IAZ047>049-059>061-072>074-084-230400-
   CENTRAL IOWA

CITY           SKY/WX    TMP DP  RH WIND       PRES   REMARKS
AMES           MOCLDY    33  18  53 S9        30.08F WCI  25
ANKENY *       PTCLDY    34  16  47 SW13G18   30.10F WCI  25
BOONE *        CLOUDY    34  16  47 SW14G24   30.04F WCI  24
CHARITON *     CLEAR     32  16  51 S12       30.12S WCI  23
DES MOINES     PTCLDY    34  15  46 S13       30.10F WCI  25
GRINNELL*      CLEAR     31  16  54 S9        30.10F WCI  23
KNOXVILLE *    CLEAR     34  14  44 S12       30.10F WCI  25
MARSHALLTOWN   PTCLDY    33  16  49 S13       30.08S WCI  24
NEWTON *       CLEAR     32  16  51 SW12G18   30.11S WCI  23
PELLA *        CLEAR     33  15  47 S9        30.12F WCI  25
PERRY *        MOCLDY    31  16  54 S10       30.07F WCI  22
$$

IAZ004>006-015-016-023>025-035-036-230400-
   NORTH CENTRAL IOWA

CITY           SKY/WX    TMP DP  RH WIND       PRES   REMARKS
ALGONA *       CLOUDY    34  18  51 S17       29.98F WCI  23
CLARION *      CLOUDY    34  18  51 S14       30.02F WCI  24
ESTHERVILLE    CLEAR     31  17  56 SW16      29.95F WCI  20
FORT DODGE *   CLOUDY    33  16  49 S15G23    30.02F WCI  23
MASON CITY     CLOUDY    33  16  49 S10       30.04F WCI  25
FOREST CITY *  CLOUDY    34  19  55 S10       30.01F WCI  26
WEBSTER CITY * MOCLDY    34  16  47 S17       30.02F WCI  23
IOWA FALLS *   CLOUDY    33  18  55 S12       30.06F WCI  24
$$

IAZ007>011-017>019-026>030-037>042-050>054-066-230400-
   NORTHEAST IOWA

CITY           SKY/WX    TMP DP  RH WIND       PRES   REMARKS
CEDAR RAPIDS   CLOUDY    32  16  51 S10       30.11F WCI  24
CHARLES CITY * CLOUDY    32  16  51 S12       30.07S WCI  23
CLINTON *      CLOUDY    32  21  64 S10       30.17F WCI  24
DECORAH *      CLOUDY    32  18  55 S7G13     30.07F WCI  26
DUBUQUE        CLOUDY    30  18  60 S10       30.13F WCI  21
MONTICELLO *   CLOUDY    32  18  55 S9        30.13R WCI  24
OELWEIN *      CLOUDY    32  18  55 S12       30.10R WCI  23
WATERLOO       CLOUDY    33  16  49 S9        30.10R WCI  25
$$

IAZ064-065-067-068-078-230400-
   EAST CENTRAL IOWA

CITY           SKY/WX    TMP DP  RH WIND       PRES   REMARKS
DAVENPORT      CLOUDY    32  18  56 S12       30.19F WCI  23
IOWA CITY      PTCLDY    33  17  51 S8        30.16F WCI  26
MT. PLEASANT * CLOUDY    32  19  57 S9        30.17F WCI  24
MUSCATINE *    CLOUDY    34  19  55 S8        30.17F WCI  27
QUAD CITIES    CLOUDY    33  16  49 S7        30.17F WCI  27
$$

IAZ062-063-075>077-085>089-095>099-230400-
   SOUTHEAST IOWA

CITY           SKY/WX    TMP DP  RH WIND       PRES   REMARKS
BURLINGTON     PTCLDY    33  20  58 S8        30.18F WCI  26
FAIRFIELD *    CLOUDY    34  14  44 S9        30.14F WCI  26
FORT MADISON * CLOUDY    34  19  55 S5        30.18F WCI  30
KEOKUK *       CLOUDY    34  18  51 S7        30.18F WCI  28
OSKALOOSA *      N/A     29  18  61 S9        30.12F WCI  21
OTTUMWA        PTCLDY    33  15  47 S12       30.13F WCI  24
WASHINGTON *   CLOUDY    34  18  51 S12       30.15F WCI  25
$$

ABBREVIATIONS USED IN REMARKS
   TC - TEMPERATURES IN CELSIUS
  WCI - WIND CHILL INDEX
   HX - HEAT INDEX
  VSB - VISIBILITY
$$




USA.gov is the U.S. government's official web portal to all federal, state and local government web resources and services.